Starlink 32792

operational
NORAD ID: 62504 Int'l Des: 2025-003 Owner: SPXS Country: US Constellation: starlink
LEOCIRCULAR

关于 Starlink 32792

正在加载描述...

实时位置

正在加载3D地球...

即将过境

高度历史

Altitude vs Time

uPlot chart will show altitude changes over time

两行轨道根数

1 62504U 25003T 26033.29689237 .00014074 00000-0 51960-3 0 9997
2 62504 42.9995 128.4215 0001773 287.2950 72.7707 15.27603188 61144
Epoch: Feb 2, 2026 • Age: 27 hours

当前状态

高度 486.0 km
速度 7.63 km/s
星下点 38.98°N, 103.26°W
发射日期 Jan 6, 2025
运行时间 1 years
类型 internet

技术详情

分类 Payload
质量 730.00 kg
干质量 700.00 kg
总质量 730.00 kg
长度 0.30 m
直径 4.10 m
跨度 29.00 m
形状 Box + pan
制造商 SPXS
平台类型 Starlink V2M
阶段状态 In Orbit
所有者/国家 SPXS/US

大型星座

Loading constellations...